Tracking 27112 objects as of 27-Mar-2023
HD Live streaming from Space Station
objects crossing your sky now

STARLINK-2039

Track STARLINK-2039 now!
10-day predictions
STARLINK-2039 is classified as:


NORAD ID: 47655
Int'l Code: 2021-012AM
Perigee: 553.2 km
Apogee: 555.2 km
Inclination: 53.1 °
Period: 95.6 minutes
Semi major axis: 6925 km
RCS: Unknown
Launch date: February 16, 2021
Source: United States (US)
Launch site: AIR FORCE EASTERN TEST RANGE (AFETR)
Your satellite tracking list
Your tracking list is empty




NASA's NSSDC Master Catalog

Two Line Element Set (TLE):
1 47655U 21012AM  23085.68078651  .00030605  00000-0  20619-2 0  9996
2 47655  53.0528 235.4789 0001432  56.3048 303.8077 15.06448408117351
Source of the keplerian elements: AFSPC